Weather History for Hultsfred, Sweden

Change the Weather History Date:

Saturday, October 12, 2013

  Actual Average Record
Temperature  
Mean Temperature 42 °F -  
Max Temperature 55 °F - - ()
Min Temperature 28 °F - - ()
Degree Days  
Heating Degree Days 24    
Moisture  
Dew Point 37 °F    
Average Humidity 84    
Maximum Humidity 100    
Minimum Humidity 54    
Precipitation  
Precipitation 0.00 in - - ()
Sea Level Pressure  
Sea Level Pressure 30.46 in    
Wind  
Wind Speed 2 mph ()    
Max Wind Speed 7 mph    
Max Gust Speed -    
Visibility 9.4 miles    
Events      
T = Trace of Precipitation, MM = Missing Value Source: Averaged Metar Reports

Daily Weather History Graph

Daily Weather History Graph

Search for Another Location

Airport:

Trip Planner

Search our weather history database for the weather conditions in past years. The results will help you decide how hot, cold, wet, or windy it might be!

Date:

Astronomy

Oct. 12, 2013 Rise Set
Actual Time 7:24 AM CEST 6:00 PM CEST
Civil Twilight 6:45 AM CEST 6:39 PM CEST
Nautical Twilight 6:00 AM CEST 7:24 PM CEST
Astronomical Twilight 5:14 AM CEST 8:09 PM CEST
Moon 3:09 PM CEST (10/12) No Moon Set
Length of Visible Light 11h 54m
Length of Day
10h 36m
First Quarter, 55% of the Moon is Illuminated
Oct 12
First Quarter
Oct 19
Full
Oct 27
Last Quarter
Nov 3
New
Nov 10
First Quarter

Hourly Weather History & Observations

Time (CEST) Temp. Dew Point Humidity Pressure Visibility Wind Dir Wind Speed Gust Speed Precip Events Conditions
12:00 AM 33 °F 33 °F 97% 30.46 in 7 mi Calm Calm - -  
1:00 AM 33 °F 32 °F 94% 30.47 in 6 mi SE 2.2 mph - -  
2:00 AM 31 °F 31 °F 97% 30.48 in 9 mi Calm Calm - -  
3:00 AM 30 °F 30 °F 99% 30.48 in 9 mi Calm Calm - -  
4:00 AM 30 °F 30 °F 99% 30.48 in 11 mi Calm Calm - -  
6:00 AM 30 °F 29 °F 96% 30.48 in 9 mi East 2.2 mph - -  
7:00 AM 29 °F 29 °F 99% 30.49 in 11 mi East 2.2 mph - -  
8:00 AM 29 °F 29 °F 100% 30.50 in 9 mi East 2.2 mph - -  
9:00 AM 39 °F 38 °F 97% 30.50 in 9 mi ENE 2.2 mph - -  
10:00 AM 44 °F 40 °F 80% 30.50 in 11 mi NE 4.5 mph - -  
12:00 PM 53 °F 43 °F 59% 30.48 in 14 mi NE 6.7 mph - -  
1:00 PM 54 °F 43 °F 55% 30.47 in 11 mi East 6.7 mph - -   Scattered Clouds
2:00 PM 52 °F 43 °F 62% 30.46 in 11 mi ENE 6.7 mph - -   Scattered Clouds
3:00 PM 54 °F 42 °F 54% 30.45 in 13 mi East 6.7 mph - -  
4:00 PM 54 °F 43 °F 56% 30.44 in 11 mi East 6.7 mph - -  
6:00 PM 50 °F 42 °F 67% 30.44 in 10 mi East 2.2 mph - -   Mostly Cloudy
7:00 PM 45 °F 41 °F 80% 30.43 in 9 mi NE 2.2 mph - -  
8:00 PM 40 °F 39 °F 95% 30.42 in 5 mi NE 2.2 mph - -   Mist
9:00 PM 38 °F 38 °F 98% 30.40 in 6 mi NE 2.2 mph - -   Mist
10:00 PM 38 °F 37 °F 97% 30.39 in 6 mi ENE 2.2 mph - -   Mist